Terminal Aerodrome Forecast
Issued by NWS St Louis, MO

Home | Current Version | Previous Version | Text Only | Print | Product List | Glossary On
Versions: 1 2 3 4 5 6 7 8 9 10 11 12 13 14
856
FTUS43 KLSX 230520
TAFCOU
TAF
KCOU 230520Z 2306/2406 12014KT P6SM OVC050
     FM231000 13012KT P6SM VCSH OVC035
     FM231600 15012KT P6SM OVC040
     FM232000 16014G20KT P6SM SCT200
     FM240300 17013KT P6SM SCT250 WS014/21050KT=

USA.gov is the U.S. government's official web portal to all federal, state and local government web resources and services.